Wilmington, NC

5:55 AM EDT on October 19, 2017 (GMT -0400)
Wilmington International

Weather History for KILM - March, 2013

Change the Weather History Date:

Friday, March 22, 2013

  Actual Average Record
Temperature  
Mean Temperature 43 °F 57 °F  
Max Temperature 54 °F 68 °F 87 °F (1907)
Min Temperature 31 °F 45 °F 27 °F (1956)
Degree Days  
Heating Degree Days 22 9  
Month to date heating degree days 325 252  
Since 1 July heating degree days 2132 2181  
Cooling Degree Days 0 1  
Month to date cooling degree days 2 7  
Year to date cooling degree days 14 12  
Moisture  
Dew Point 18 °F    
Average Humidity 43    
Maximum Humidity 62    
Minimum Humidity 24    
Precipitation  
Precipitation 0.00 in 0.13 in 1.61 in (1931)
Month to date precipitation 1.21 3.05  
Year to date precipitation 8.48 10.43  
Snow  
Snow 0.00 in 0.00 in 2.00 in (1883)
Month to date snowfall 0.0 0.1  
Since 1 July snowfall T 1.6  
Snow Depth 0.00 in    
Sea Level Pressure  
Sea Level Pressure 30.04 in    
Wind  
Wind Speed 7 mph (WNW)    
Max Wind Speed 15 mph    
Max Gust Speed 20 mph    
Visibility 10 miles    
Events      
T = Trace of Precipitation, MM = Missing Value Source: NWS Daily Summary

Daily Weather History Graph

Daily Weather History Graph

Search for Another Location

Airport or City:

Trip Planner

Search our weather history database for the weather conditions in past years. The results will help you decide how hot, cold, wet, or windy it might be!

Date:

Astronomy

Mar. 22, 2013 Rise Set
Actual Time 7:12 AM EDT 7:25 PM EDT
Civil Twilight 6:47 AM EDT 7:50 PM EDT
Nautical Twilight 6:17 AM EDT 8:19 PM EDT
Astronomical Twilight 5:48 AM EDT 8:49 PM EDT
Moon 3:00 PM EDT (3/22) 4:00 AM EDT (3/22)
Length of Visible Light 13h 02m
Length of Day
12h 12m
Waxing Gibbous, 77% of the Moon is Illuminated
Mar 22
Waxing Gibbous
Mar 27
Full
Apr 3
Last Quarter
Apr 10
New
Apr 18
First Quarter

Hourly Weather History & Observations

Time (EDT) Temp. Windchill Dew Point Humidity Pressure Visibility Wind Dir Wind Speed Gust Speed Precip Events Conditions
12:53 AM 35.1 °F 30.1 °F 16.0 °F 46% 29.98 in 10.0 mi North 5.8 mph - N/A   Clear
1:53 AM 34.0 °F 26.6 °F 15.1 °F 46% 30.00 in 10.0 mi North 9.2 mph - N/A   Clear
2:53 AM 33.1 °F 27.7 °F 15.1 °F 48% 30.01 in 10.0 mi North 5.8 mph - N/A   Clear
3:53 AM 32.0 °F 24.8 °F 12.9 °F 45% 30.01 in 10.0 mi North 8.1 mph - N/A   Clear
4:53 AM 32.0 °F 24.8 °F 12.9 °F 45% 30.02 in 10.0 mi North 8.1 mph - N/A   Clear
5:53 AM 32.0 °F 25.6 °F 14.0 °F 48% 30.03 in 10.0 mi North 6.9 mph - N/A   Clear
6:53 AM 32.0 °F 28.7 °F 14.0 °F 48% 30.06 in 10.0 mi North 3.5 mph - N/A   Clear
7:53 AM 32.0 °F - 16.0 °F 52% 30.08 in 10.0 mi Calm Calm - N/A   Clear
8:53 AM 34.0 °F 28.0 °F 16.0 °F 48% 30.11 in 10.0 mi NW 6.9 mph - N/A   Clear
9:53 AM 37.0 °F 33.3 °F 12.0 °F 36% 30.11 in 10.0 mi North 4.6 mph - N/A   Clear
10:53 AM 41.0 °F 36.4 °F 14.0 °F 33% 30.10 in 10.0 mi West 6.9 mph - N/A   Clear
11:53 AM 43.0 °F 40.3 °F 14.0 °F 31% 30.09 in 10.0 mi Variable 4.6 mph - N/A   Clear
12:53 PM 46.0 °F 41.9 °F 12.9 °F 26% 30.08 in 10.0 mi WSW 8.1 mph - N/A   Clear
1:53 PM 48.0 °F - 14.0 °F 26% 30.05 in 10.0 mi Variable 5.8 mph 16.1 mph N/A   Clear
2:53 PM 50.0 °F - 15.1 °F 25% 30.02 in 10.0 mi WSW 9.2 mph - N/A   Scattered Clouds
3:53 PM 52.0 °F - 17.1 °F 25% 30.01 in 10.0 mi West 9.2 mph - N/A   Mostly Cloudy
4:53 PM 53.1 °F - 18.0 °F 25% 30.00 in 10.0 mi West 11.5 mph 18.4 mph N/A   Clear
5:53 PM 52.0 °F - 18.0 °F 26% 30.00 in 10.0 mi West 9.2 mph - N/A   Scattered Clouds
6:53 PM 48.9 °F - 26.1 °F 41% 30.01 in 10.0 mi WSW 12.7 mph - N/A   Clear
7:53 PM 46.9 °F - 26.1 °F 44% 30.02 in 10.0 mi SW 10.4 mph - N/A   Clear
8:53 PM 44.1 °F 40.8 °F 28.0 °F 53% 30.04 in 10.0 mi SW 5.8 mph - N/A   Clear
9:53 PM 42.1 °F 39.2 °F 28.9 °F 60% 30.04 in 10.0 mi SW 4.6 mph - N/A   Clear
10:53 PM 44.1 °F 40.8 °F 32.0 °F 63% 30.06 in 10.0 mi SW 5.8 mph - N/A   Clear
11:53 PM 45.0 °F 41.8 °F 32.0 °F 60% 30.06 in 10.0 mi WSW 5.8 mph - N/A   Clear